Weather History for KOTH - October, 2011

Change the Weather History Date:

Saturday, October 22, 2011

  Actual Average Record
Temperature  
Mean Temperature 58 °F 53 °F  
Max Temperature 66 °F 60 °F 85 °F (1922)
Min Temperature 50 °F 45 °F 30 °F (1928)
Degree Days  
Heating Degree Days 7 12  
Month to date heating degree days 181 242  
Since 1 July heating degree days 732 850  
Cooling Degree Days 0 0  
Month to date cooling degree days 0 0  
Year to date cooling degree days 1 2  
Growing Degree Days 8 (Base 50)    
Moisture  
Dew Point 49 °F    
Average Humidity 79    
Maximum Humidity 89    
Minimum Humidity 63    
Precipitation  
Precipitation 0.00 in 0.18 in 2.00 in (1931)
Month to date precipitation 2.26 2.79  
Year to date precipitation 30.44 41.61  
Sea Level Pressure  
Sea Level Pressure 30.34 in    
Wind  
Wind Speed 6 mph (NE)    
Max Wind Speed 14 mph    
Max Gust Speed -    
Visibility 6 miles    
Events      
T = Trace of Precipitation, MM = Missing Value Source: NWS Daily Summary

Daily Weather History Graph

Daily Weather History Graph

Search for Another Location

Airport or City:

Trip Planner

Search our weather history database for the weather conditions in past years. The results will help you decide how hot, cold, wet, or windy it might be!

Date:

Astronomy

Oct. 22, 2011 Rise Set
Actual Time 7:39 AM PDT 6:22 PM PDT
Civil Twilight 7:10 AM PDT 6:51 PM PDT
Nautical Twilight 6:36 AM PDT 7:25 PM PDT
Astronomical Twilight 6:03 AM PDT 7:58 PM PDT
Moon 2:35 AM PDT (10/22) 3:50 PM PDT (10/22)
Length of Visible Light 11h 41m
Length of Day
10h 43m
Waning Crescent, 22% of the Moon is Illuminated
Oct 22
Waning Crescent
Oct 26
New
Nov 2
First Quarter
Nov 10
Full
Nov 18
Last Quarter

Hourly Weather History & Observations

Time (PDT) Temp. Dew Point Humidity Pressure Visibility Wind Dir Wind Speed Gust Speed Precip Events Conditions
12:15 AM 51.8 °F 46.4 °F 82% 30.35 in 10.0 mi Calm Calm - N/A   Clear
12:35 AM 51.8 °F 46.4 °F 82% 30.35 in 10.0 mi Calm Calm - N/A   Scattered Clouds
12:55 AM 51.8 °F 46.4 °F 82% 30.35 in 10.0 mi SSE 3.5 mph - N/A   Overcast
1:15 AM 50.0 °F 44.6 °F 82% 30.35 in 10.0 mi SSE 4.6 mph - N/A   Overcast
1:35 AM 50.0 °F 44.6 °F 82% 30.34 in 10.0 mi SSE 4.6 mph - N/A   Overcast
1:55 AM 50.0 °F 44.6 °F 82% 30.35 in 1.0 mi South 3.5 mph - N/A   Overcast
2:15 AM 51.8 °F 46.4 °F 82% 30.35 in 0.2 mi Calm Calm - N/A   Overcast
2:35 AM 51.8 °F 46.4 °F 82% 30.35 in 0.2 mi Calm Calm - N/A   Overcast
2:55 AM 51.8 °F 48.2 °F 88% 30.35 in 0.2 mi Calm Calm - N/A   Overcast
3:15 AM 51.8 °F 48.2 °F 88% 30.34 in 0.5 mi Calm Calm - N/A   Overcast
3:35 AM 51.8 °F 48.2 °F 88% 30.34 in 0.2 mi Calm Calm - N/A   Overcast
3:55 AM 53.6 °F 48.2 °F 82% 30.34 in 0.5 mi NNE 3.5 mph - N/A   Overcast
4:15 AM 51.8 °F 48.2 °F 88% 30.34 in 0.8 mi Calm Calm - N/A   Overcast
4:35 AM 51.8 °F 48.2 °F 88% 30.34 in 0.5 mi Calm Calm - N/A   Overcast
4:55 AM 53.6 °F 48.2 °F 82% 30.34 in 0.8 mi Calm Calm - N/A   Overcast
5:15 AM 51.8 °F 48.2 °F 88% 30.33 in 0.8 mi ESE 4.6 mph - N/A   Overcast
5:35 AM 51.8 °F 46.4 °F 82% 30.34 in 1.0 mi Calm Calm - N/A   Overcast
5:55 AM 51.8 °F 46.4 °F 82% 30.34 in 1.2 mi Calm Calm - N/A   Overcast
6:15 AM 51.8 °F 46.4 °F 82% 30.34 in 1.2 mi Calm Calm - N/A   Overcast
6:35 AM 51.8 °F 46.4 °F 82% 30.34 in 1.0 mi North 3.5 mph - N/A   Overcast
6:55 AM 51.8 °F 46.4 °F 82% 30.34 in 3.0 mi Calm Calm - N/A   Overcast
7:15 AM 51.8 °F 46.4 °F 82% 30.34 in 7.0 mi East 4.6 mph - N/A   Overcast
7:35 AM 51.8 °F 46.4 °F 82% 30.34 in 1.2 mi ESE 6.9 mph - N/A   Overcast
7:55 AM 51.8 °F 46.4 °F 82% 30.34 in 0.8 mi ESE 6.9 mph - N/A   Overcast
8:15 AM 51.8 °F 46.4 °F 82% 30.34 in 0.2 mi ESE 6.9 mph - N/A   Overcast
8:35 AM 51.8 °F 46.4 °F 82% 30.35 in 0.2 mi ESE 9.2 mph - N/A   Overcast
8:55 AM 51.8 °F 46.4 °F 82% 30.35 in 6.0 mi SE 11.5 mph - N/A   Overcast
9:15 AM 51.8 °F 48.2 °F 88% 30.35 in 10.0 mi SE 10.4 mph - N/A   Overcast
9:35 AM 53.6 °F 48.2 °F 82% 30.35 in 10.0 mi SE 4.6 mph - N/A   Scattered Clouds
9:55 AM 53.6 °F 48.2 °F 82% 30.36 in 10.0 mi ESE 4.6 mph - N/A   Scattered Clouds
10:15 AM 53.6 °F 48.2 °F 82% 30.36 in 10.0 mi SSW 3.5 mph - N/A   Mostly Cloudy
10:35 AM 55.4 °F 50.0 °F 82% 30.37 in 10.0 mi ESE 4.6 mph - N/A   Overcast
10:55 AM 57.2 °F 51.8 °F 82% 30.36 in 10.0 mi ESE 8.1 mph - N/A   Overcast
11:15 AM 57.2 °F 51.8 °F 82% 30.36 in 10.0 mi SE 6.9 mph - N/A   Overcast
11:35 AM 59.0 °F 51.8 °F 77% 30.37 in 10.0 mi SE 4.6 mph - N/A   Overcast
11:55 AM 60.8 °F 53.6 °F 77% 30.37 in 10.0 mi North 5.8 mph - N/A   Overcast
12:15 PM 60.8 °F 51.8 °F 72% 30.38 in 10.0 mi West 9.2 mph - N/A   Overcast
12:35 PM 60.8 °F 51.8 °F 72% 30.37 in 10.0 mi WNW 6.9 mph - N/A   Overcast
12:55 PM 62.6 °F 51.8 °F 68% 30.37 in 10.0 mi North 3.5 mph - N/A   Overcast
1:15 PM 62.6 °F 51.8 °F 68% 30.36 in 10.0 mi North 5.8 mph - N/A   Overcast
1:35 PM 64.4 °F 53.6 °F 68% 30.35 in 10.0 mi NNW 3.5 mph - N/A   Overcast
1:55 PM 66.2 °F 53.6 °F 64% 30.35 in 10.0 mi NNW 9.2 mph - N/A   Scattered Clouds
2:15 PM 64.4 °F 53.6 °F 68% 30.34 in 10.0 mi North 11.5 mph - N/A   Mostly Cloudy
2:35 PM 64.4 °F 53.6 °F 68% 30.33 in 10.0 mi North 12.7 mph - N/A   Overcast
2:55 PM 64.4 °F 55.4 °F 73% 30.32 in 10.0 mi North 12.7 mph - N/A   Mostly Cloudy
3:15 PM 64.4 °F 53.6 °F 68% 30.32 in 10.0 mi North 11.5 mph - N/A   Clear
3:35 PM 64.4 °F 53.6 °F 68% 30.31 in 10.0 mi North 13.8 mph - N/A   Clear
3:55 PM 64.4 °F 53.6 °F 68% 30.30 in 10.0 mi North 12.7 mph - N/A   Clear
4:15 PM 64.4 °F 53.6 °F 68% 30.30 in 10.0 mi North 12.7 mph - N/A   Clear
4:35 PM 64.4 °F 53.6 °F 68% 30.30 in 10.0 mi NNW 11.5 mph - N/A   Clear
4:55 PM 62.6 °F 53.6 °F 72% 30.30 in 10.0 mi NNW 12.7 mph - N/A   Clear
5:15 PM 62.6 °F 53.6 °F 72% 30.29 in 10.0 mi NNW 12.7 mph - N/A   Clear
5:35 PM 60.8 °F 53.6 °F 77% 30.29 in 10.0 mi North 12.7 mph - N/A   Clear
5:55 PM 60.8 °F 51.8 °F 72% 30.28 in 10.0 mi North 13.8 mph - N/A   Clear
6:15 PM 59.0 °F 51.8 °F 77% 30.28 in 10.0 mi North 12.7 mph - N/A   Clear
6:35 PM 59.0 °F 51.8 °F 77% 30.29 in 10.0 mi North 10.4 mph - N/A   Clear
6:55 PM 57.2 °F 51.8 °F 82% 30.29 in 10.0 mi North 9.2 mph - N/A   Clear
7:15 PM 57.2 °F 51.8 °F 82% 30.29 in 10.0 mi North 9.2 mph - N/A   Clear
7:35 PM 57.2 °F 51.8 °F 82% 30.28 in 10.0 mi North 8.1 mph - N/A   Clear
7:55 PM 57.2 °F 51.8 °F 82% 30.28 in 10.0 mi North 6.9 mph - N/A   Clear
8:15 PM 57.2 °F 50.0 °F 77% 30.27 in 10.0 mi North 5.8 mph - N/A   Clear
8:35 PM 57.2 °F 50.0 °F 77% 30.27 in 10.0 mi North 4.6 mph - N/A   Clear
8:55 PM 55.4 °F 48.2 °F 77% 30.27 in 10.0 mi Calm Calm - N/A   Clear
9:15 PM 55.4 °F 50.0 °F 82% 30.27 in 10.0 mi North - - N/A   Clear
9:35 PM 55.4 °F 50.0 °F 82% 30.28 in 10.0 mi North 4.6 mph - N/A   Clear
9:55 PM 55.4 °F 48.2 °F 77% 30.27 in 10.0 mi NNE 5.8 mph - N/A   Clear
10:15 PM 55.4 °F 50.0 °F 82% 30.27 in 10.0 mi NNE 6.9 mph - N/A   Clear
10:35 PM 55.4 °F 50.0 °F 82% 30.27 in 10.0 mi North 5.8 mph - N/A   Clear
10:55 PM 55.4 °F 48.2 °F 77% 30.27 in 10.0 mi Calm Calm - N/A   Clear
11:15 PM 53.6 °F 48.2 °F 82% 30.27 in 10.0 mi Calm Calm - N/A   Clear
11:35 PM 53.6 °F 48.2 °F 82% 30.27 in 10.0 mi Calm Calm - N/A   Clear
11:55 PM 53.6 °F 48.2 °F 82% 30.27 in 10.0 mi NNE 3.5 mph - N/A   Clear